Miscellaneous Local Product
Issued by NWS North Platte, NE

Home | Current Version | Previous Version | Graphics & Text | Print | Product List | Glossary On
Versions: 1 2 3 4 5 6 7 8 9 10 11 12 13 14 15 16 17 18 19 20 21 22 23 24 25 26 27 28 29 30 31 32 33 34 35 36 37 38 39 40 41 42 43 44 45 46 47 48 49 50
000
AXUS43 KLBF 051410
MISLBF


WESTERN AND NORTH CENTRAL NEBRASKA HOURLY WEATHER ROUNDUP
NATIONAL WEATHER SERVICE NORTH PLATTE NE
900 AM CDT TUE MAY 05 2015

***STATIONS NOT REPORTING VARIABLES SUCH AS SKY/WEATHER OR
PRESSURE ARE PROVIDED BY THE NEBRASKA DEPARTMENT OF
ROADS...RAWS...AND APRS NETWORKS...AND ARE NOT UNDER
NATIONAL WEATHER SERVICE QUALITY CONTROL***

...OBSERVATIONS IN AND NEAR THE EASTERN PANHANDLE OF NEBRASKA...

CITY           SKY/WX    TMP DP  RH WIND       PRES   REMARKS
PINE RIDGE     CLOUDY    49  43  80 SE6       30.02F
CHADRON        CLOUDY    51  45  79 E8        30.00S
ALLIANCE       CLOUDY    49  46  90 S9        30.02R
SIDNEY         CLOUDY    47  45  93 SE5       30.02F
WHITECLAY        N/A     47  43  84 E8          N/A
CRESCENT LAKE    N/A     48  47  97 S3          N/A
BIG SPRINGS      N/A     50  49  95 E3          N/A
$$

...OBSERVATIONS IN NORTH CENTRAL NEBRASKA...

CITY           SKY/WX    TMP DP  RH WIND       PRES   REMARKS
VALENTINE      CLOUDY    53  48  83 E7        30.05S
THEDFORD       CLOUDY    54  53  96 E8        30.04F FOG
AINSWORTH      CLOUDY    53  53  98 E9        30.05S FOG
O`NEILL        CLOUDY    54  53  96 E8        30.07S FOG
ORD            LGT RAIN  55  54  96 SE8       30.06R VSB 1
BROKEN BOW     FOG       55  54  96 SE10      30.05R VSB 1/2
BROWNLEE         N/A     55  54  95 E9          N/A
VALENTINE NWR    N/A     52  52  99 E6          N/A
SPRINGVIEW       N/A     51  48  90 CALM        N/A
HALSEY           N/A     52  52 100 E3          N/A
BREWSTER         N/A     55  55  99 E9          N/A
ROSE             N/A     52  52 100 NE8         N/A
NEWPORT          N/A     52  52  99 E8          N/A
SARGENT          N/A     54  53  98 SE3         N/A
COMSTOCK         N/A     58  58  99 E6          N/A
EWING            N/A     55  54  96 E6          N/A
$$

...OBSERVATIONS IN SOUTHWEST NEBRASKA AND FAR NORTHEAST COLORADO...

CITY           SKY/WX    TMP DP  RH WIND       PRES   REMARKS
WRAY           FOG      N/A N/A N/A NE6       30.01S VSB 1/4
IMPERIAL       CLOUDY    51  50  96 NE8       30.01F FOG
OGALLALA       CLOUDY    50  50  99 E3        30.02F FOG
NORTH PLATTE   CLOUDY    52  52 100 E7        30.04S FOG
MCCOOK         CLOUDY    56  55  97 NE10      30.00F FOG
LEXINGTON      FOG       56  56  97 E7        30.04F VSB 1/4
SUTHERLAND       N/A     47  46  93 E8          N/A
GOTHENBURG       N/A     54  52  94 E7          N/A
CALLAWAY         N/A     54  53  98 E9          N/A
$$

...NORTH PLATTE AREA...

CITY           SKY/WX    TMP DP  RH WIND       PRES   REMARKS
AIRPORT        CLOUDY    52  52 100 E7        30.04S FOG
DOWNTOWN         N/A     52  51  95 CALM        N/A
$$

...SOME WEATHER OBSERVATIONS FROM AROUND THE REGION...

CITY           SKY/WX    TMP DP  RH WIND       PRES   REMARKS
DENVER         CLOUDY    49  47  93 SE13      29.98S
LARAMIE        SUNNY     45  40  82 S18       29.97F
CHEYENNE       FOG       43  43 100 S10       30.00S VSB 1/4
SCOTTSBLUFF    CLOUDY    49  46  90 S12G23    30.01S FOG
RAPID CITY     SUNNY     50  38  63 SE7       29.99F
PIERRE         CLOUDY    55  42  61 SE15      30.05F
WINNER         PTSUNNY   59  45  59 SE14      30.06S
SIOUX FALLS    PTSUNNY   60  36  40 E13       30.10S
OMAHA          CLOUDY    63  60  90 S9        30.09R
GRAND ISLAND   FOG       58  57  97 E6        30.07S VSB 1
KANSAS CITY    PTSUNNY   67  61  81 S9        30.11S
WICHITA        CLOUDY    67  55  65 SE14      30.05S
HAYS           CLOUDY    61  54  77 SE13      30.01S
LIBERAL        CLOUDY    59  54  82 E10       29.94F
GOODLAND       CLOUDY    54  54 100 SE8       30.01R FOG
$$



USA.gov is the U.S. government's official web portal to all federal, state and local government web resources and services.